EW6456 Weather Reports


time (UTC)temp
F
wind
direction
speed
knots
gust
knots
rain 1hr
in
rain 24hr
in
rain mn
in
humidity
%
barometer
mb
20260505164600 40 342 2.6 0.0 0.00 0.00 0.00 54 1019.8
20260505163055 41 91 3.5 14.8 0.00 0.00 0.00 51 1019.7
20260505161546 41 169 4.3 13.0 0.00 0.00 0.00 51 1019.6
20260505153104 41 259 1.7 13.9 0.00 0.00 0.00 55 1019.5
20260505151550 41 20 0.0 8.7 0.00 0.00 0.00 59 1019.6
20260505124527 28 54 0.0 0.0 0.00 0.00 0.00 82 1018.6
20260505123021 27 248 0.0 0.0 0.00 0.00 0.00 81 1018.2
20260505121520 28 45 0.0 0.0 0.00 0.00 0.00 76 1018.3
20260505120015 30 180 0.0 0.0 0.00 0.00 0.00 75 1018.2
20260505114529 26 134 0.0 0.0 0.00 0.00 0.00 83 1018.1
20260505113013 26 138 0.0 0.0 0.00 0.00 0.00 84 1018.0
20260505111512 26 11 0.0 0.0 0.00 0.00 0.00 82 1018.0
20260505101505 27 186 0.0 0.0 0.00 0.00 0.00 83 1017.9
20260505100002 26 268 0.0 0.0 0.00 0.00 0.00 82 1017.7
20260505094607 27 138 0.0 0.0 0.00 0.00 0.00 82 1017.6
20260505093055 27 148 0.0 0.0 0.00 0.00 0.00 81 1017.6
20260505091558 28 330 0.0 0.0 0.00 0.00 0.00 80 1017.4
20260505090055 30 293 0.0 0.0 0.00 0.00 0.00 77 1017.4
20260505084546 30 153 0.0 0.0 0.00 0.00 0.00 76 1017.3
20260505083047 31 0.0 0.0 0.00 0.00 0.00 75 1017.4
20260505081555 31 135 0.0 0.0 0.00 0.00 0.00 75 1017.3
20260505080042 32 282 0.0 0.0 0.00 0.00 0.00 74 1017.4
20260505074547 32 324 0.0 0.0 0.00 0.00 0.00 75 1017.5
20260505073034 32 136 0.0 0.0 0.00 0.00 0.00 73 1017.4
20260505071532 32 358 0.0 0.0 0.00 0.00 0.00 75 1017.2
20260505070027 32 0.0 0.0 0.00 0.00 0.00 76 1017.2
20260505064524 31 23 0.0 0.0 0.00 0.00 0.00 76 1017.1
20260505063028 32 355 0.0 0.0 0.00 0.00 0.00 75 1017.1
20260505061525 34 8 0.0 0.0 0.00 0.00 0.00 71 1016.9
20260505060009 37 137 0.0 0.0 0.00 0.00 0.00 65 1016.7
20260505054518 37 39 0.0 0.0 0.00 0.00 0.00 65 1016.6
20260505053001 38 200 0.0 0.0 0.00 0.00 0.00 64 1016.5
20260505051559 39 217 0.0 0.0 0.00 0.00 0.00 62 1016.1
20260505041544 41 68 0.0 7.0 0.00 0.00 0.00 57 1015.2
20260505040040 43 326 7.0 16.5 0.00 0.00 0.00 53 1014.8
20260505034535 44 146 1.7 11.3 0.00 0.00 0.00 53 1014.5
20260505033035 45 246 0.0 0.0 0.00 0.00 0.00 51 1013.9
20260505031525 46 252 0.0 2.6 0.00 0.00 0.00 49 1013.5
20260505030022 47 293 3.5 12.2 0.00 0.00 0.00 47 1013.2
20260505024545 48 326 0.0 0.0 0.00 0.00 0.00 42 1012.7
20260505023015 49 278 0.0 0.0 0.00 0.00 0.00 41 1012.4
20260505021528 49 163 0.0 0.0 0.00 0.00 0.00 40 1012.3
20260505020011 50 165 0.0 11.3 0.00 0.00 0.00 38 1012.2
20260505014510 51 345 0.0 0.0 0.00 0.00 0.00 36 1011.8
20260505013008 52 355 0.0 6.1 0.00 0.00 0.00 34 1011.7
20260505011508 52 326 0.0 6.1 0.00 0.00 0.00 35 1011.5
20260505010007 53 184 1.7 11.3 0.00 0.00 0.00 34 1011.5
20260505004513 53 197 7.0 14.8 0.00 0.00 0.00 34 1011.4
20260505003003 53 143 0.0 15.6 0.00 0.00 0.00 37 1011.5
20260505001503 53 7 6.1 18.2 0.00 0.00 0.00 35 1011.3
20260505000002 53 176 3.5 11.3 0.00 0.00 0.00 36 1011.3
20260504234501 54 97 3.5 12.2 0.00 0.00 0.00 37 1011.1
20260504233003 55 349 3.5 11.3 0.00 0.00 0.00 36 1010.8
20260504233001 55 264 3.5 11.3 0.00 0.00 0.00 36 1010.8
20260504231557 55 346 0.0 10.4 0.00 0.00 0.00 38 1010.6
20260504230103 55 75 2.6 11.3 0.00 0.00 0.00 37 1010.7
20260504224556 54 333 4.3 11.3 0.00 0.00 0.00 37 1010.5
20260504223102 54 40 0.0 7.8 0.00 0.00 0.00 40 1010.5
20260504221532 54 240 2.6 12.2 0.00 0.00 0.00 40 1010.5
20260504220025 54 119 1.7 18.2 0.00 0.00 0.00 42 1010.7
20260504214522 54 309 5.2 19.1 0.00 0.00 0.00 42 1010.7
20260504213022 54 184 4.3 18.2 0.00 0.00 0.00 42 1010.7
20260504211521 54 348 7.0 19.1 0.00 0.00 0.00 42 1010.7
20260504210022 54 173 7.8 17.4 0.00 0.00 0.00 42 1010.9
20260504204519 54 285 5.2 20.9 0.00 0.00 0.00 41 1010.9
20260504203018 54 150 5.2 17.4 0.00 0.00 0.00 42 1010.8
20260504201516 54 273 7.0 14.8 0.00 0.00 0.00 41 1010.9
20260504200017 53 246 0.9 8.7 0.00 0.00 0.00 47 1010.9
20260504194546 53 255 7.8 14.8 0.00 0.00 0.00 47 1011.1
20260504193045 52 360 4.3 18.2 0.00 0.00 0.00 47 1011.1
20260504191542 52 319 8.7 21.7 0.00 0.00 0.00 47 1011.4
20260504190041 52 59 0.9 14.8 0.00 0.00 0.00 45 1011.4
20260504184539 52 105 2.6 19.1 0.00 0.00 0.00 45 1011.5
20260504183039 52 333 12.2 20.0 0.00 0.00 0.00 44 1011.4
20260504181508 52 36 7.8 20.0 0.00 0.00 0.00 42 1011.4
20260504180008 51 349 2.6 16.5 0.00 0.00 0.00 44 1011.6
20260504174536 51 238 1.7 15.6 0.00 0.00 0.00 43 1011.6
20260504173036 51 297 3.5 15.6 0.00 0.00 0.00 42 1011.7
20260504171534 51 86 8.7 16.5 0.00 0.00 0.00 45 1011.7